Year,Month,Day,Hour,Minute,Value (Times are PST for windspeed in km/hr)
2010,06,01,00,00,0.90
2010,06,01,00,01,0.10
2010,06,01,00,02,0.30
2010,06,01,00,03,0.30
2010,06,01,00,04,2.70
2010,06,01,00,05,1.50
2010,06,01,00,06,4.60
2010,06,01,00,07,5.20
2010,06,01,00,08,1.00
2010,06,01,00,09,1.30
2010,06,01,00,10,3.70
2010,06,01,00,11,2.80
2010,06,01,00,12,2.70
2010,06,01,00,13,2.10
2010,06,01,00,14,4.90
2010,06,01,00,15,0.00
2010,06,01,00,16,2.40
2010,06,01,00,17,0.20
2010,06,01,00,18,1.50
2010,06,01,00,19,1.50
2010,06,01,00,20,0.80
2010,06,01,00,21,3.10
2010,06,01,00,22,7.40
2010,06,01,00,23,6.30
2010,06,01,00,24,1.50
2010,06,01,00,25,0.10
2010,06,01,00,26,3.20
2010,06,01,00,27,0.60
2010,06,01,00,28,0.20
2010,06,01,00,29,1.30
2010,06,01,00,30,0.40
2010,06,01,00,31,0.80
2010,06,01,00,32,1.80
2010,06,01,00,33,3.10
2010,06,01,00,34,2.40
2010,06,01,00,35,1.40
2010,06,01,00,36,1.30
2010,06,01,00,37,8.30
2010,06,01,00,38,3.60
2010,06,01,00,39,3.60
2010,06,01,00,40,6.40
2010,06,01,00,41,4.90
2010,06,01,00,42,4.00
2010,06,01,00,43,4.80
2010,06,01,00,44,4.50
2010,06,01,00,45,3.10
2010,06,01,00,46,1.00
2010,06,01,00,47,0.30
2010,06,01,00,48,3.60
2010,06,01,00,49,1.70
2010,06,01,00,50,2.00
2010,06,01,00,51,1.50
2010,06,01,00,52,2.00
2010,06,01,00,53,3.40
2010,06,01,00,54,4.80
2010,06,01,00,55,3.60
2010,06,01,00,56,4.50
2010,06,01,00,57,2.50
2010,06,01,00,58,0.10
2010,06,01,00,59,1.70
2010,06,01,01,00,1.00
2010,06,01,01,01,2.60
2010,06,01,01,02,0.50
2010,06,01,01,03,3.90
2010,06,01,01,04,5.50
2010,06,01,01,05,6.40
2010,06,01,01,06,4.00
2010,06,01,01,07,5.10
2010,06,01,01,08,1.90
2010,06,01,01,09,0.40
2010,06,01,01,10,1.50
2010,06,01,01,11,3.40
2010,06,01,01,12,4.30
2010,06,01,01,13,0.20
2010,06,01,01,14,1.60
2010,06,01,01,15,3.10
2010,06,01,01,16,1.30
2010,06,01,01,17,2.70
2010,06,01,01,18,2.00
2010,06,01,01,19,3.10
2010,06,01,01,20,1.50
2010,06,01,01,21,2.10
2010,06,01,01,22,2.00
2010,06,01,01,23,0.60
2010,06,01,01,24,1.60
2010,06,01,01,25,1.30
2010,06,01,01,26,0.90
2010,06,01,01,27,1.20
2010,06,01,01,28,3.50
2010,06,01,01,29,3.80
2010,06,01,01,30,1.30
2010,06,01,01,31,3.80
2010,06,01,01,32,2.30
2010,06,01,01,33,0.70
2010,06,01,01,34,0.20
2010,06,01,01,35,1.70
2010,06,01,01,36,1.30
2010,06,01,01,37,2.30
2010,06,01,01,38,0.10
2010,06,01,01,39,0.00
2010,06,01,01,40,2.70
2010,06,01,01,41,2.40
2010,06,01,01,42,3.40
2010,06,01,01,43,1.80
2010,06,01,01,44,0.80
2010,06,01,01,45,1.10
2010,06,01,01,46,0.60
2010,06,01,01,47,3.60
2010,06,01,01,48,1.20
2010,06,01,01,49,1.50
2010,06,01,01,50,0.70
2010,06,01,01,51,0.10
2010,06,01,01,52,1.20
2010,06,01,01,53,1.80
2010,06,01,01,54,1.10
2010,06,01,01,55,2.60
2010,06,01,01,56,2.30
2010,06,01,01,57,0.90
2010,06,01,01,58,1.70
2010,06,01,01,59,0.80
2010,06,01,02,00,0.00
2010,06,01,02,01,1.10
2010,06,01,02,02,0.20
2010,06,01,02,03,0.80
2010,06,01,02,04,0.60
2010,06,01,02,05,0.50
2010,06,01,02,06,1.30
2010,06,01,02,07,1.00
2010,06,01,02,08,0.20
2010,06,01,02,09,0.10
2010,06,01,02,10,0.90
2010,06,01,02,11,0.90
2010,06,01,02,12,0.10
2010,06,01,02,13,0.30
2010,06,01,02,14,0.20
2010,06,01,02,15,0.20
2010,06,01,02,16,1.20
2010,06,01,02,17,0.50
2010,06,01,02,18,0.00
2010,06,01,02,19,0.40
2010,06,01,02,20,0.00
2010,06,01,02,21,1.20
2010,06,01,02,22,0.90
2010,06,01,02,23,0.70
2010,06,01,02,24,0.00
2010,06,01,02,25,0.60
2010,06,01,02,26,0.00
2010,06,01,02,27,0.00
2010,06,01,02,28,0.00
2010,06,01,02,29,0.10
2010,06,01,02,30,0.00
2010,06,01,02,31,0.20
2010,06,01,02,32,1.00
2010,06,01,02,33,0.00
2010,06,01,02,34,0.20
2010,06,01,02,35,0.00
2010,06,01,02,36,0.00
2010,06,01,02,37,0.70
2010,06,01,02,38,0.00
2010,06,01,02,39,0.60
2010,06,01,02,40,1.30
2010,06,01,02,41,2.00
2010,06,01,02,42,0.90
2010,06,01,02,43,0.20
2010,06,01,02,44,1.10
2010,06,01,02,45,0.80
2010,06,01,02,46,1.80
2010,06,01,02,47,1.30
2010,06,01,02,48,1.30
2010,06,01,02,49,1.10
2010,06,01,02,50,1.00
2010,06,01,02,51,3.40
2010,06,01,02,52,0.10
2010,06,01,02,53,1.70
2010,06,01,02,54,2.70
2010,06,01,02,55,2.90
2010,06,01,02,56,0.90
2010,06,01,02,57,0.50
2010,06,01,02,58,1.00
2010,06,01,02,59,1.60
2010,06,01,03,00,5.70
2010,06,01,03,01,3.20
2010,06,01,03,02,0.10
2010,06,01,03,03,0.90
2010,06,01,03,04,0.00
2010,06,01,03,05,0.00
2010,06,01,03,06,3.00
2010,06,01,03,07,0.40
2010,06,01,03,08,3.10
2010,06,01,03,09,4.00
2010,06,01,03,10,1.50
2010,06,01,03,11,2.80
2010,06,01,03,12,5.80
2010,06,01,03,13,5.20
2010,06,01,03,14,4.50
2010,06,01,03,15,2.00
2010,06,01,03,16,3.30
2010,06,01,03,17,1.10
2010,06,01,03,18,1.60
2010,06,01,03,19,1.70
2010,06,01,03,20,4.90
2010,06,01,03,21,0.40
2010,06,01,03,22,1.30
2010,06,01,03,23,0.60
2010,06,01,03,24,0.00
2010,06,01,03,25,1.00
2010,06,01,03,26,0.10
2010,06,01,03,27,1.20
2010,06,01,03,28,0.00
2010,06,01,03,29,0.80
2010,06,01,03,30,2.40
2010,06,01,03,31,3.80
2010,06,01,03,32,1.30
2010,06,01,03,33,0.10
2010,06,01,03,34,0.20
2010,06,01,03,35,0.60
2010,06,01,03,36,0.20
2010,06,01,03,37,2.90
2010,06,01,03,38,4.90
2010,06,01,03,39,0.60
2010,06,01,03,40,1.70
2010,06,01,03,41,2.50
2010,06,01,03,42,1.80
2010,06,01,03,43,0.20
2010,06,01,03,44,2.50
2010,06,01,03,45,1.20
2010,06,01,03,46,0.00
2010,06,01,03,47,1.10
2010,06,01,03,48,1.00
2010,06,01,03,49,0.80
2010,06,01,03,50,0.70
2010,06,01,03,51,1.00
2010,06,01,03,52,1.00
2010,06,01,03,53,0.10
2010,06,01,03,54,1.10
2010,06,01,03,55,0.60
2010,06,01,03,56,0.00
2010,06,01,03,57,0.00
2010,06,01,03,58,1.40
2010,06,01,03,59,2.00
2010,06,01,04,00,1.50
2010,06,01,04,01,1.30
2010,06,01,04,02,1.20
2010,06,01,04,03,2.00
2010,06,01,04,04,3.20
2010,06,01,04,05,3.40
2010,06,01,04,06,1.30
2010,06,01,04,07,2.20
2010,06,01,04,08,0.80
2010,06,01,04,09,4.10
2010,06,01,04,10,6.20
2010,06,01,04,11,3.70
2010,06,01,04,12,4.90
2010,06,01,04,13,1.70
2010,06,01,04,14,5.30
2010,06,01,04,15,2.70
2010,06,01,04,16,1.30
2010,06,01,04,17,4.80
2010,06,01,04,18,5.70
2010,06,01,04,19,2.60
2010,06,01,04,20,3.80
2010,06,01,04,21,3.10
2010,06,01,04,22,4.60
2010,06,01,04,23,1.50
2010,06,01,04,24,2.40
2010,06,01,04,25,4.20
2010,06,01,04,26,5.30
2010,06,01,04,27,3.70
2010,06,01,04,28,4.40
2010,06,01,04,29,0.90
2010,06,01,04,30,2.50
2010,06,01,04,31,2.50
2010,06,01,04,32,3.80
2010,06,01,04,33,2.20
2010,06,01,04,34,0.20
2010,06,01,04,35,0.00
2010,06,01,04,36,1.40
2010,06,01,04,37,3.70
2010,06,01,04,38,1.30
2010,06,01,04,39,0.00
2010,06,01,04,40,0.00
2010,06,01,04,41,0.90
2010,06,01,04,42,1.20
2010,06,01,04,43,0.20
2010,06,01,04,44,0.30
2010,06,01,04,45,0.40
2010,06,01,04,46,1.30
2010,06,01,04,47,0.10
2010,06,01,04,48,0.20
2010,06,01,04,49,3.10
2010,06,01,04,50,2.30
2010,06,01,04,51,4.30
2010,06,01,04,52,4.50
2010,06,01,04,53,5.80
2010,06,01,04,54,3.10
2010,06,01,04,55,1.80
2010,06,01,04,56,0.10
2010,06,01,04,57,3.80
2010,06,01,04,58,0.00
2010,06,01,04,59,0.40
2010,06,01,05,00,1.20
2010,06,01,05,01,2.00
2010,06,01,05,02,2.00
2010,06,01,05,03,1.80
2010,06,01,05,04,0.50
2010,06,01,05,05,1.90
2010,06,01,05,06,3.00
2010,06,01,05,07,2.00
2010,06,01,05,08,0.20
2010,06,01,05,09,1.40
2010,06,01,05,10,0.10
2010,06,01,05,11,0.30
2010,06,01,05,12,2.40
2010,06,01,05,13,1.20
2010,06,01,05,14,0.50
2010,06,01,05,15,1.20
2010,06,01,05,16,1.40
2010,06,01,05,17,2.60
2010,06,01,05,18,0.10
2010,06,01,05,19,3.80
2010,06,01,05,20,1.80
2010,06,01,05,21,0.10
2010,06,01,05,22,1.30
2010,06,01,05,23,3.00
2010,06,01,05,24,0.50
2010,06,01,05,25,0.50
2010,06,01,05,26,4.20
2010,06,01,05,27,2.20
2010,06,01,05,28,5.00
2010,06,01,05,29,2.40
2010,06,01,05,30,1.20
2010,06,01,05,31,1.30
2010,06,01,05,32,2.00
2010,06,01,05,33,1.30
2010,06,01,05,34,5.00
2010,06,01,05,35,3.90
2010,06,01,05,36,1.30
2010,06,01,05,37,0.60
2010,06,01,05,38,0.50
2010,06,01,05,39,0.00
2010,06,01,05,40,0.00
2010,06,01,05,41,0.50
2010,06,01,05,42,0.00
2010,06,01,05,43,1.00
2010,06,01,05,44,2.20
2010,06,01,05,45,1.50
2010,06,01,05,46,0.70
2010,06,01,05,47,0.60
2010,06,01,05,48,0.60
2010,06,01,05,49,2.00
2010,06,01,05,50,0.00
2010,06,01,05,51,1.60
2010,06,01,05,52,0.40
2010,06,01,05,53,0.90
2010,06,01,05,54,1.80
2010,06,01,05,55,1.00
2010,06,01,05,56,0.10
2010,06,01,05,57,0.30
2010,06,01,05,58,0.20
2010,06,01,05,59,0.10
2010,06,01,06,00,0.10
2010,06,01,06,01,0.50
2010,06,01,06,02,2.50
2010,06,01,06,03,0.10
2010,06,01,06,04,0.00
2010,06,01,06,05,0.10
2010,06,01,06,06,0.50
2010,06,01,06,07,0.20
2010,06,01,06,08,0.30
2010,06,01,06,09,0.00
2010,06,01,06,10,0.00
2010,06,01,06,11,1.40
2010,06,01,06,12,2.50
2010,06,01,06,13,0.00
2010,06,01,06,14,0.80
2010,06,01,06,15,0.20
2010,06,01,06,16,2.40
2010,06,01,06,17,2.60
2010,06,01,06,18,2.80
2010,06,01,06,19,0.20
2010,06,01,06,20,0.00
2010,06,01,06,21,0.00
2010,06,01,06,22,0.00
2010,06,01,06,23,0.00
2010,06,01,06,24,0.00
2010,06,01,06,25,2.20
2010,06,01,06,26,1.30
2010,06,01,06,27,0.60
2010,06,01,06,28,0.70
2010,06,01,06,29,0.00
2010,06,01,06,30,0.00
2010,06,01,06,31,0.00
2010,06,01,06,32,0.00
2010,06,01,06,33,0.10
2010,06,01,06,34,0.00
2010,06,01,06,35,0.00
2010,06,01,06,36,0.00
2010,06,01,06,37,0.00
2010,06,01,06,38,0.30
2010,06,01,06,39,0.40
2010,06,01,06,40,0.00
2010,06,01,06,41,0.10
2010,06,01,06,42,0.00
2010,06,01,06,43,0.00
2010,06,01,06,44,0.60
2010,06,01,06,45,1.20
2010,06,01,06,46,0.10
2010,06,01,06,47,0.10
2010,06,01,06,48,0.00
2010,06,01,06,49,0.00
2010,06,01,06,50,0.10
2010,06,01,06,51,0.00
2010,06,01,06,52,0.00
2010,06,01,06,53,0.00
2010,06,01,06,54,0.00
2010,06,01,06,55,0.00
2010,06,01,06,56,0.00
2010,06,01,06,57,0.10
2010,06,01,06,58,0.00
2010,06,01,06,59,0.00
2010,06,01,07,00,0.20
2010,06,01,07,01,0.10
2010,06,01,07,02,0.10
2010,06,01,07,03,0.50
2010,06,01,07,04,0.80
2010,06,01,07,05,0.00
2010,06,01,07,06,0.10
2010,06,01,07,07,0.00
2010,06,01,07,08,0.10
2010,06,01,07,09,0.00
2010,06,01,07,10,0.00
2010,06,01,07,11,0.00
2010,06,01,07,12,0.00
2010,06,01,07,13,0.00
2010,06,01,07,14,0.00
2010,06,01,07,15,0.10
2010,06,01,07,16,0.00
2010,06,01,07,17,0.00
2010,06,01,07,18,0.00
2010,06,01,07,19,0.00
2010,06,01,07,20,0.00
2010,06,01,07,21,0.00
2010,06,01,07,22,0.10
2010,06,01,07,23,0.20
2010,06,01,07,24,0.00
2010,06,01,07,25,0.40
2010,06,01,07,26,0.00
2010,06,01,07,27,0.10
2010,06,01,07,28,0.20
2010,06,01,07,29,0.00
2010,06,01,07,30,0.00
2010,06,01,07,31,0.00
2010,06,01,07,32,0.30
2010,06,01,07,33,0.20
2010,06,01,07,34,0.10
2010,06,01,07,35,0.60
2010,06,01,07,36,1.30
2010,06,01,07,37,3.00
2010,06,01,07,38,3.10
2010,06,01,07,39,5.40
2010,06,01,07,40,5.20
2010,06,01,07,41,3.70
2010,06,01,07,42,3.40
2010,06,01,07,43,3.00
2010,06,01,07,44,3.70
2010,06,01,07,45,3.40
2010,06,01,07,46,4.20
2010,06,01,07,47,2.00
2010,06,01,07,48,3.90
2010,06,01,07,49,3.10
2010,06,01,07,50,3.60
2010,06,01,07,51,3.70
2010,06,01,07,52,1.50
2010,06,01,07,53,2.70
2010,06,01,07,54,4.30
2010,06,01,07,55,4.00
2010,06,01,07,56,3.50
2010,06,01,07,57,3.90
2010,06,01,07,58,3.90
2010,06,01,07,59,3.90
2010,06,01,08,00,5.60
2010,06,01,08,01,7.20
2010,06,01,08,02,7.30
2010,06,01,08,03,7.20
2010,06,01,08,04,6.00
2010,06,01,08,05,5.00
2010,06,01,08,06,4.50
2010,06,01,08,07,6.50
2010,06,01,08,08,5.70
2010,06,01,08,09,0.90
2010,06,01,08,10,3.10
2010,06,01,08,11,4.40
2010,06,01,08,12,5.90
2010,06,01,08,13,6.20
2010,06,01,08,14,7.40
2010,06,01,08,15,7.60
2010,06,01,08,16,8.70
2010,06,01,08,17,6.20
2010,06,01,08,18,6.30
2010,06,01,08,19,5.80
2010,06,01,08,20,4.10
2010,06,01,08,21,7.90
2010,06,01,08,22,8.40
2010,06,01,08,23,6.70
2010,06,01,08,24,7.10
2010,06,01,08,25,6.60
2010,06,01,08,26,6.60
2010,06,01,08,28,8.60
2010,06,01,08,29,7.00
2010,06,01,08,30,7.60
2010,06,01,08,31,6.10
2010,06,01,08,32,5.00
2010,06,01,08,33,6.70
2010,06,01,08,34,7.20
2010,06,01,08,35,7.90
2010,06,01,08,36,6.60
2010,06,01,08,37,5.60
2010,06,01,08,38,8.60
2010,06,01,08,39,5.10
2010,06,01,08,40,11.10
2010,06,01,08,41,8.00
2010,06,01,08,42,6.90
2010,06,01,08,43,8.10
2010,06,01,08,44,5.30
2010,06,01,08,45,7.80
2010,06,01,08,46,7.60
2010,06,01,08,47,7.10
2010,06,01,08,48,8.80
2010,06,01,08,49,7.50
2010,06,01,08,50,7.50
2010,06,01,08,51,9.20
2010,06,01,08,52,6.30
2010,06,01,08,53,6.60
2010,06,01,08,54,5.90
2010,06,01,08,55,5.80
2010,06,01,08,56,6.00
2010,06,01,08,57,5.90
2010,06,01,08,58,7.60
2010,06,01,08,59,8.50
2010,06,01,09,00,6.70
2010,06,01,09,01,8.90
2010,06,01,09,02,7.00
2010,06,01,09,03,8.10
2010,06,01,09,04,8.00
2010,06,01,09,05,8.30
2010,06,01,09,06,12.20
2010,06,01,09,07,9.20
2010,06,01,09,08,7.10
2010,06,01,09,09,7.60
2010,06,01,09,10,7.60
2010,06,01,09,11,10.00
2010,06,01,09,12,8.10
2010,06,01,09,13,8.70
2010,06,01,09,14,10.50
2010,06,01,09,15,6.70
2010,06,01,09,16,9.00
2010,06,01,09,17,8.40
2010,06,01,09,18,7.80
2010,06,01,09,19,9.10
2010,06,01,09,20,8.70
2010,06,01,09,21,8.90
2010,06,01,09,22,7.30
2010,06,01,09,23,5.30
2010,06,01,09,24,7.30
2010,06,01,09,25,8.50
2010,06,01,09,26,8.00
2010,06,01,09,27,8.80
2010,06,01,09,28,9.30
2010,06,01,09,29,7.30
2010,06,01,09,30,7.50
2010,06,01,09,31,7.90
2010,06,01,09,32,10.30
2010,06,01,09,33,9.60
2010,06,01,09,34,9.70
2010,06,01,09,35,8.10
2010,06,01,09,36,8.70
2010,06,01,09,37,8.10
2010,06,01,09,38,7.60
2010,06,01,09,39,5.70
2010,06,01,09,40,6.50
2010,06,01,09,41,9.30
2010,06,01,09,42,8.90
2010,06,01,09,43,7.80
2010,06,01,09,44,5.10
2010,06,01,09,45,6.90
2010,06,01,09,46,9.90
2010,06,01,09,47,7.60
2010,06,01,09,48,4.50
2010,06,01,09,49,7.00
2010,06,01,09,50,10.40
2010,06,01,09,51,7.10
2010,06,01,09,52,11.10
2010,06,01,09,53,9.00
2010,06,01,09,54,8.80
2010,06,01,09,55,6.10
2010,06,01,09,56,7.70
2010,06,01,09,57,9.70
2010,06,01,09,58,8.70
2010,06,01,09,59,8.60
2010,06,01,10,00,9.80
2010,06,01,10,01,11.50
2010,06,01,10,02,9.20
2010,06,01,10,03,14.00
2010,06,01,10,04,7.40
2010,06,01,10,05,8.50
2010,06,01,10,06,7.40
2010,06,01,10,07,8.00
2010,06,01,10,08,5.50
2010,06,01,10,09,8.10
2010,06,01,10,10,8.10
2010,06,01,10,11,6.40
2010,06,01,10,12,9.90
2010,06,01,10,13,7.50
2010,06,01,10,14,7.20
2010,06,01,10,15,5.30
2010,06,01,10,16,7.80
2010,06,01,10,17,5.40
2010,06,01,10,18,9.10
2010,06,01,10,19,7.00
2010,06,01,10,20,8.40
2010,06,01,10,21,10.10
2010,06,01,10,22,12.80
2010,06,01,10,23,7.20
2010,06,01,10,24,4.80
2010,06,01,10,25,7.90
2010,06,01,10,26,9.10
2010,06,01,10,27,10.80
2010,06,01,10,28,7.10
2010,06,01,10,29,8.60
2010,06,01,10,30,5.00
2010,06,01,10,31,7.50
2010,06,01,10,32,7.80
2010,06,01,10,33,9.20
2010,06,01,10,34,8.80
2010,06,01,10,35,4.70
2010,06,01,10,36,9.20
2010,06,01,10,37,9.20
2010,06,01,10,38,8.90
2010,06,01,10,39,4.60
2010,06,01,10,40,6.90
2010,06,01,10,41,8.50
2010,06,01,10,42,10.00
2010,06,01,10,43,4.40
2010,06,01,10,44,7.10
2010,06,01,10,45,12.60
2010,06,01,10,46,11.70
2010,06,01,10,47,8.20
2010,06,01,10,48,13.10
2010,06,01,10,49,8.90
2010,06,01,10,50,8.10
2010,06,01,10,51,10.80
2010,06,01,10,52,9.70
2010,06,01,10,53,7.00
2010,06,01,10,54,8.70
2010,06,01,10,55,10.40
2010,06,01,10,56,10.60
2010,06,01,10,57,12.60
2010,06,01,10,58,12.70
2010,06,01,10,59,8.20
2010,06,01,11,00,9.40
2010,06,01,11,01,7.50
2010,06,01,11,02,9.10
2010,06,01,11,03,9.80
2010,06,01,11,04,11.00
2010,06,01,11,05,5.20
2010,06,01,11,06,10.80
2010,06,01,11,07,13.10
2010,06,01,11,08,9.90
2010,06,01,11,09,7.50
2010,06,01,11,10,9.50
2010,06,01,11,11,7.90
2010,06,01,11,12,10.00
2010,06,01,11,13,7.90
2010,06,01,11,14,9.70
2010,06,01,11,15,9.90
2010,06,01,11,16,8.20
2010,06,01,11,17,8.10
2010,06,01,11,18,10.60
2010,06,01,11,19,8.10
2010,06,01,11,20,8.90
2010,06,01,11,21,9.20
2010,06,01,11,22,7.90
2010,06,01,11,23,8.00
2010,06,01,11,24,6.90
2010,06,01,11,25,7.00
2010,06,01,11,26,7.80
2010,06,01,11,27,10.40
2010,06,01,11,28,8.00
2010,06,01,11,29,8.50
2010,06,01,11,30,7.80
2010,06,01,11,31,14.20
2010,06,01,11,32,11.20
2010,06,01,11,33,6.40
2010,06,01,11,34,5.20
2010,06,01,11,35,7.80
2010,06,01,11,36,11.70
2010,06,01,11,37,9.00
2010,06,01,11,38,6.80
2010,06,01,11,39,6.90
2010,06,01,11,40,7.80
2010,06,01,11,41,8.50
2010,06,01,11,42,7.60
2010,06,01,11,43,6.30
2010,06,01,11,44,8.20
2010,06,01,11,45,7.70
2010,06,01,11,46,7.70
2010,06,01,11,47,10.80
2010,06,01,11,48,7.20
2010,06,01,11,49,12.70
2010,06,01,11,50,14.40
2010,06,01,11,51,9.60
2010,06,01,11,52,11.10
2010,06,01,11,53,13.10
2010,06,01,11,54,14.60
2010,06,01,11,55,11.10
2010,06,01,11,56,8.30
2010,06,01,11,57,7.90
2010,06,01,11,58,8.50
2010,06,01,11,59,8.30
2010,06,01,12,00,11.50
2010,06,01,12,01,10.60
2010,06,01,12,02,8.70
2010,06,01,12,03,11.90
2010,06,01,12,04,8.70
2010,06,01,12,05,8.30
2010,06,01,12,06,11.80
2010,06,01,12,07,8.60
2010,06,01,12,08,11.50
2010,06,01,12,09,9.60
2010,06,01,12,10,11.00
2010,06,01,12,11,13.20
2010,06,01,12,12,7.80
2010,06,01,12,13,8.50
2010,06,01,12,14,10.90
2010,06,01,12,15,12.30
2010,06,01,12,16,12.40
2010,06,01,12,17,15.00
2010,06,01,12,18,8.60
2010,06,01,12,19,10.20
2010,06,01,12,20,11.00
2010,06,01,12,21,7.40
2010,06,01,12,22,13.10
2010,06,01,12,23,10.60
2010,06,01,12,24,7.10
2010,06,01,12,25,4.70
2010,06,01,12,26,6.10
2010,06,01,12,27,9.00
2010,06,01,12,28,7.10
2010,06,01,12,29,7.40
2010,06,01,12,30,9.30
2010,06,01,12,31,10.90
2010,06,01,12,32,13.30
2010,06,01,12,33,10.80
2010,06,01,12,34,8.20
2010,06,01,12,35,10.70
2010,06,01,12,36,8.20
2010,06,01,12,37,10.00
2010,06,01,12,38,7.10
2010,06,01,12,39,8.50
2010,06,01,12,40,13.00
2010,06,01,12,41,10.60
2010,06,01,12,42,12.50
2010,06,01,12,43,11.80
2010,06,01,12,44,11.50
2010,06,01,12,45,9.30
2010,06,01,12,46,9.90
2010,06,01,12,47,10.20
2010,06,01,12,48,13.10
2010,06,01,12,49,8.20
2010,06,01,12,50,10.20
2010,06,01,12,51,12.00
2010,06,01,12,52,10.90
2010,06,01,12,53,11.30
2010,06,01,12,54,16.20
2010,06,01,12,55,9.70
2010,06,01,12,56,13.70
2010,06,01,12,57,9.20
2010,06,01,12,58,7.40
2010,06,01,12,59,10.80
2010,06,01,13,00,8.50
2010,06,01,13,01,7.20
2010,06,01,13,02,4.70
2010,06,01,13,03,9.10
2010,06,01,13,04,9.90
2010,06,01,13,05,5.40
2010,06,01,13,06,6.40
2010,06,01,13,07,11.70
2010,06,01,13,08,8.40
2010,06,01,13,09,10.60
2010,06,01,13,10,11.40
2010,06,01,13,11,6.60
2010,06,01,13,12,12.50
2010,06,01,13,13,13.80
2010,06,01,13,14,11.00
2010,06,01,13,15,7.40
2010,06,01,13,16,8.50
2010,06,01,13,17,8.50
2010,06,01,13,18,10.00
2010,06,01,13,19,6.40
2010,06,01,13,20,6.30
2010,06,01,13,21,7.90
2010,06,01,13,22,9.50
2010,06,01,13,23,8.20
2010,06,01,13,24,11.50
2010,06,01,13,25,10.90
2010,06,01,13,26,11.20
2010,06,01,13,27,10.20
2010,06,01,13,28,7.20
2010,06,01,13,29,7.70
2010,06,01,13,30,10.40
2010,06,01,13,31,13.80
2010,06,01,13,32,11.30
2010,06,01,13,33,10.90
2010,06,01,13,34,9.80
2010,06,01,13,35,7.50
2010,06,01,13,36,9.90
2010,06,01,13,37,11.30
2010,06,01,13,38,11.70
2010,06,01,13,39,13.10
2010,06,01,13,40,6.90
2010,06,01,13,41,7.50
2010,06,01,13,42,8.20
2010,06,01,13,43,10.00
2010,06,01,13,44,9.60
2010,06,01,13,45,7.50
2010,06,01,13,46,10.50
2010,06,01,13,47,9.30
2010,06,01,13,48,10.90
2010,06,01,13,49,11.50
2010,06,01,13,50,11.50
2010,06,01,13,51,8.20
2010,06,01,13,52,6.70
2010,06,01,13,53,8.10
2010,06,01,13,54,7.70
2010,06,01,13,55,12.30
2010,06,01,13,56,10.80
2010,06,01,13,57,6.10
2010,06,01,13,58,14.70
2010,06,01,13,59,10.50
2010,06,01,14,00,7.70
2010,06,01,14,01,9.20
2010,06,01,14,02,8.50
2010,06,01,14,03,11.20
2010,06,01,14,04,14.60
2010,06,01,14,05,15.60
2010,06,01,14,06,10.70
2010,06,01,14,07,15.10
2010,06,01,14,08,8.20
2010,06,01,14,09,15.40
2010,06,01,14,10,10.80
2010,06,01,14,11,14.50
2010,06,01,14,12,17.20
2010,06,01,14,13,12.90
2010,06,01,14,14,14.50
2010,06,01,14,15,11.30
2010,06,01,14,16,12.70
2010,06,01,14,17,8.10
2010,06,01,14,18,7.60
2010,06,01,14,19,9.20
2010,06,01,14,20,10.90
2010,06,01,14,21,10.90
2010,06,01,14,22,7.60
2010,06,01,14,23,9.20
2010,06,01,14,24,7.50
2010,06,01,14,25,6.70
2010,06,01,14,26,11.80
2010,06,01,14,27,7.10
2010,06,01,14,28,10.10
2010,06,01,14,29,7.20
2010,06,01,14,30,14.90
2010,06,01,14,31,12.60
2010,06,01,14,32,12.70
2010,06,01,14,33,13.20
2010,06,01,14,34,9.40
2010,06,01,14,35,7.10
2010,06,01,14,36,11.00
2010,06,01,14,37,7.50
2010,06,01,14,38,7.10
2010,06,01,14,39,5.20
2010,06,01,14,40,7.50
2010,06,01,14,41,9.40
2010,06,01,14,42,12.40
2010,06,01,14,43,11.10
2010,06,01,14,44,6.60
2010,06,01,14,45,7.80
2010,06,01,14,46,7.20
2010,06,01,14,47,7.80
2010,06,01,14,48,9.40
2010,06,01,14,49,6.10
2010,06,01,14,50,7.50
2010,06,01,14,51,5.60
2010,06,01,14,52,12.90
2010,06,01,14,53,8.30
2010,06,01,14,54,6.20
2010,06,01,14,55,10.10
2010,06,01,14,56,9.00
2010,06,01,14,57,9.90
2010,06,01,14,58,10.30
2010,06,01,14,59,8.00
2010,06,01,15,00,6.30
2010,06,01,15,01,11.50
2010,06,01,15,02,5.90
2010,06,01,15,03,4.50
2010,06,01,15,04,4.20
2010,06,01,15,05,5.80
2010,06,01,15,06,9.70
2010,06,01,15,07,10.60
2010,06,01,15,08,7.80
2010,06,01,15,09,6.50
2010,06,01,15,10,12.20
2010,06,01,15,11,10.10
2010,06,01,15,12,10.20
2010,06,01,15,13,10.20
2010,06,01,15,14,11.80
2010,06,01,15,15,10.50
2010,06,01,15,16,10.30
2010,06,01,15,17,8.10
2010,06,01,15,18,10.10
2010,06,01,15,19,12.70
2010,06,01,15,20,9.50
2010,06,01,15,21,6.90
2010,06,01,15,22,8.70
2010,06,01,15,23,8.00
2010,06,01,15,24,9.10
2010,06,01,15,25,7.90
2010,06,01,15,26,6.90
2010,06,01,15,27,4.50
2010,06,01,15,28,7.60
2010,06,01,15,29,3.30
2010,06,01,15,30,3.60
2010,06,01,15,31,8.00
2010,06,01,15,32,7.20
2010,06,01,15,33,6.20
2010,06,01,15,34,8.50
2010,06,01,15,35,9.20
2010,06,01,15,36,11.10
2010,06,01,15,37,8.30
2010,06,01,15,38,7.30
2010,06,01,15,39,9.40
2010,06,01,15,40,8.50
2010,06,01,15,41,6.40
2010,06,01,15,42,6.80
2010,06,01,15,43,6.70
2010,06,01,15,44,6.90
2010,06,01,15,45,8.80
2010,06,01,15,46,6.50
2010,06,01,15,47,6.40
2010,06,01,15,48,6.60
2010,06,01,15,49,6.60
2010,06,01,15,50,7.40
2010,06,01,15,51,6.80
2010,06,01,15,52,5.80
2010,06,01,15,53,7.10
2010,06,01,15,54,5.60
2010,06,01,15,55,8.00
2010,06,01,15,56,6.70
2010,06,01,15,57,9.10
2010,06,01,15,58,8.90
2010,06,01,15,59,6.90
2010,06,01,16,00,6.90
2010,06,01,16,01,8.40
2010,06,01,16,02,8.00
2010,06,01,16,03,6.90
2010,06,01,16,04,7.30
2010,06,01,16,05,8.10
2010,06,01,16,06,9.00
2010,06,01,16,07,6.00
2010,06,01,16,08,7.00
2010,06,01,16,09,8.20
2010,06,01,16,10,5.50
2010,06,01,16,11,3.60
2010,06,01,16,12,4.10
2010,06,01,16,13,1.40
2010,06,01,16,14,8.80
2010,06,01,16,15,7.80
2010,06,01,16,16,7.40
2010,06,01,16,17,7.00
2010,06,01,16,18,7.00
2010,06,01,16,19,6.70
2010,06,01,16,20,9.90
2010,06,01,16,21,5.30
2010,06,01,16,22,5.20
2010,06,01,16,23,7.10
2010,06,01,16,24,9.20
2010,06,01,16,25,10.80
2010,06,01,16,26,3.70
2010,06,01,16,27,5.20
2010,06,01,16,28,5.50
2010,06,01,16,29,2.30
2010,06,01,16,30,4.70
2010,06,01,16,31,7.50
2010,06,01,16,32,5.70
2010,06,01,16,33,8.00
2010,06,01,16,34,11.30
2010,06,01,16,35,8.50
2010,06,01,16,36,6.00
2010,06,01,16,37,6.10
2010,06,01,16,38,4.50
2010,06,01,16,39,5.40
2010,06,01,16,40,6.80
2010,06,01,16,41,4.30
2010,06,01,16,42,6.10
2010,06,01,16,43,5.20
2010,06,01,16,44,5.60
2010,06,01,16,45,4.80
2010,06,01,16,46,4.70
2010,06,01,16,47,4.10
2010,06,01,16,48,5.00
2010,06,01,16,49,5.60
2010,06,01,16,50,6.90
2010,06,01,16,51,5.90
2010,06,01,16,52,4.90
2010,06,01,16,53,4.40
2010,06,01,16,54,5.30
2010,06,01,16,55,6.20
2010,06,01,16,56,7.00
2010,06,01,16,57,1.60
2010,06,01,16,58,3.10
2010,06,01,16,59,7.40
2010,06,01,17,00,6.40
2010,06,01,17,01,6.50
2010,06,01,17,02,9.40
2010,06,01,17,03,9.90
2010,06,01,17,04,9.50
2010,06,01,17,05,4.40
2010,06,01,17,06,6.20
2010,06,01,17,07,4.50
2010,06,01,17,08,4.40
2010,06,01,17,09,6.20
2010,06,01,17,10,5.60
2010,06,01,17,11,7.80
2010,06,01,17,12,6.80
2010,06,01,17,13,10.30
2010,06,01,17,14,7.00
2010,06,01,17,15,6.40
2010,06,01,17,16,6.40
2010,06,01,17,17,5.10
2010,06,01,17,18,7.60
2010,06,01,17,19,8.80
2010,06,01,17,20,7.00
2010,06,01,17,21,7.30
2010,06,01,17,22,10.60
2010,06,01,17,23,10.20
2010,06,01,17,24,7.30
2010,06,01,17,25,4.80
2010,06,01,17,26,6.10
2010,06,01,17,27,5.90
2010,06,01,17,28,10.00
2010,06,01,17,29,9.20
2010,06,01,17,30,6.10
2010,06,01,17,31,5.90
2010,06,01,17,32,6.90
2010,06,01,17,33,5.40
2010,06,01,17,34,3.80
2010,06,01,17,35,6.20
2010,06,01,17,36,4.00
2010,06,01,17,37,4.90
2010,06,01,17,38,5.70
2010,06,01,17,39,6.00
2010,06,01,17,40,5.70
2010,06,01,17,41,3.40
2010,06,01,17,42,6.30
2010,06,01,17,43,2.60
2010,06,01,17,44,3.00
2010,06,01,17,45,4.00
2010,06,01,17,46,5.40
2010,06,01,17,47,4.50
2010,06,01,17,48,4.20
2010,06,01,17,49,6.40
2010,06,01,17,50,3.50
2010,06,01,17,51,5.90
2010,06,01,17,52,5.60
2010,06,01,17,53,2.50
2010,06,01,17,54,3.50
2010,06,01,17,55,3.30
2010,06,01,17,56,5.30
2010,06,01,17,57,4.20
2010,06,01,17,58,4.20
2010,06,01,17,59,7.20
2010,06,01,18,00,5.40
2010,06,01,18,01,3.70